| time (UTC) | temp C | wind direction | speed KPH | gust KPH | rain 1hr cm | rain 24hr cm | rain mn cm | humidity % | barometer mb |
| 20260902113025 | 15 | 114 | 4.8 | 9.7 | 0.00 | 0.00 | 0.00 | 80 | 1016.5 |
| 20260902112027 | 15 | 83 | 3.2 | 8.0 | 0.00 | 0.00 | 0.00 | 80 | 1016.3 |
| 20260902111025 | 15 | 141 | 4.8 | 8.0 | 0.00 | 0.00 | 0.00 | 80 | 1016.4 |
| 20260902110008 | 15 | 110 | 4.8 | 8.0 | 0.00 | 0.00 | 0.00 | 80 | 1016.5 |
| 20260902105014 | 15 | 150 | 4.8 | 8.0 | 0.00 | 0.00 | 0.00 | 80 | 1016.7 |
| 20260902104019 | 15 | 120 | 4.8 | 8.0 | 0.00 | 0.00 | 0.00 | 80 | 1016.7 |
| 20260902103019 | 15 | 172 | 4.8 | 8.0 | 0.00 | 0.00 | 0.00 | 80 | 1016.7 |
| 20260902102042 | 15 | 132 | 3.2 | 6.4 | 0.00 | 0.00 | 0.00 | 79 | 1016.7 |
| 20260902101021 | 15 | 132 | 4.8 | 8.0 | 0.00 | 0.00 | 0.00 | 79 | 1016.8 |
| 20260902100026 | 15 | 122 | 3.2 | 8.0 | 0.00 | 0.00 | 0.00 | 79 | 1016.9 |
| 20260902095012 | 15 | 121 | 3.2 | 6.4 | 0.00 | 0.00 | 0.00 | 79 | 1016.9 |
| 20260902094012 | 15 | 128 | 3.2 | 6.4 | 0.00 | 0.00 | 0.00 | 79 | 1016.8 |
| 20260902093013 | 15 | 120 | 3.2 | 6.4 | 0.00 | 0.00 | 0.00 | 79 | 1016.8 |
| 20260902092038 | 15 | 130 | 3.2 | 9.7 | 0.00 | 0.00 | 0.00 | 79 | 1016.9 |
| 20260902091042 | 15 | 143 | 3.2 | 8.0 | 0.00 | 0.00 | 0.00 | 78 | 1016.8 |
| 20260902090021 | 15 | 149 | 3.2 | 9.7 | 0.00 | 0.00 | 0.00 | 78 | 1016.8 |
| 20260902085023 | 15 | 121 | 3.2 | 6.4 | 0.00 | 0.00 | 0.00 | 78 | 1016.8 |
| 20260902084026 | 15 | 105 | 4.8 | 8.0 | 0.00 | 0.00 | 0.00 | 78 | 1016.8 |
| 20260902083025 | 15 | 88 | 4.8 | 8.0 | 0.00 | 0.00 | 0.00 | 77 | 1016.9 |
| 20260902082011 | 15 | 119 | 4.8 | 11.3 | 0.00 | 0.00 | 0.00 | 77 | 1016.8 |
| 20260902081014 | 16 | 116 | 4.8 | 9.7 | 0.00 | 0.00 | 0.00 | 77 | 1016.7 |
| 20260902080013 | 16 | 137 | 4.8 | 11.3 | 0.00 | 0.00 | 0.00 | 77 | 1016.6 |
| 20260902075038 | 16 | 176 | 4.8 | 12.9 | 0.00 | 0.00 | 0.00 | 77 | 1016.3 |
| 20260902074021 | 16 | 138 | 4.8 | 11.3 | 0.00 | 0.00 | 0.00 | 76 | 1016.4 |
| 20260902073043 | 16 | 120 | 8.0 | 14.5 | 0.00 | 0.00 | 0.00 | 76 | 1016.4 |
| 20260902072025 | 16 | 132 | 8.0 | 12.9 | 0.00 | 0.00 | 0.00 | 76 | 1016.4 |
| 20260902071048 | 16 | 152 | 4.8 | 9.7 | 0.00 | 0.00 | 0.00 | 75 | 1016.5 |
| 20260902070022 | 16 | 143 | 6.4 | 12.9 | 0.00 | 0.00 | 0.00 | 75 | 1016.4 |
| 20260902065045 | 16 | 137 | 6.4 | 14.5 | 0.00 | 0.00 | 0.00 | 74 | 1016.5 |
| 20260902064024 | 16 | 119 | 8.0 | 12.9 | 0.00 | 0.00 | 0.00 | 74 | 1016.3 |
| 20260902063027 | 16 | 99 | 4.8 | 11.3 | 0.00 | 0.00 | 0.00 | 74 | 1016.5 |
| 20260902062023 | 16 | 135 | 6.4 | 9.7 | 0.00 | 0.00 | 0.00 | 73 | 1016.5 |
| 20260902061043 | 16 | 185 | 4.8 | 8.0 | 0.00 | 0.00 | 0.00 | 73 | 1016.6 |
| 20260902060017 | 17 | 121 | 4.8 | 16.1 | 0.00 | 0.00 | 0.00 | 72 | 1016.7 |
| 20260902055018 | 17 | 137 | 6.4 | 11.3 | 0.00 | 0.00 | 0.00 | 72 | 1016.6 |
| 20260902054038 | 17 | 184 | 3.2 | 8.0 | 0.00 | 0.00 | 0.00 | 70 | 1016.7 |
| 20260902053017 | 17 | 195 | 6.4 | 12.9 | 0.00 | 0.00 | 0.00 | 70 | 1016.6 |
| 20260902052020 | 17 | 186 | 6.4 | 11.3 | 0.00 | 0.00 | 0.00 | 69 | 1016.5 |
| 20260902051044 | 17 | 174 | 3.2 | 8.0 | 0.00 | 0.00 | 0.00 | 67 | 1016.5 |
| 20260902050020 | 17 | 150 | 6.4 | 12.9 | 0.00 | 0.00 | 0.00 | 67 | 1016.5 |
| 20260902045021 | 18 | 223 | 1.6 | 12.9 | 0.00 | 0.00 | 0.00 | 66 | 1016.4 |
| 20260902044020 | 18 | 150 | 4.8 | 14.5 | 0.00 | 0.00 | 0.00 | 66 | 1016.3 |
| 20260902043020 | 18 | 216 | 6.4 | 16.1 | 0.00 | 0.00 | 0.00 | 65 | 1016.1 |
| 20260902042018 | 18 | 196 | 6.4 | 19.3 | 0.00 | 0.00 | 0.00 | 64 | 1016.0 |
| 20260902041013 | 18 | 219 | 3.2 | 17.7 | 0.00 | 0.00 | 0.00 | 63 | 1015.9 |
| 20260902040013 | 18 | 214 | 4.8 | 17.7 | 0.00 | 0.00 | 0.00 | 62 | 1015.8 |
| 20260902035025 | 19 | 230 | 6.4 | 16.1 | 0.00 | 0.00 | 0.00 | 61 | 1015.5 |
| 20260902034047 | 19 | 234 | 6.4 | 16.1 | 0.00 | 0.00 | 0.00 | 61 | 1015.3 |
| 20260902033019 | 19 | 265 | 4.8 | 17.7 | 0.00 | 0.00 | 0.00 | 60 | 1015.1 |
| 20260902032021 | 20 | 245 | 4.8 | 19.3 | 0.00 | 0.00 | 0.00 | 58 | 1015.0 |
| 20260902031022 | 20 | 232 | 4.8 | 9.7 | 0.00 | 0.00 | 0.00 | 57 | 1014.7 |
| 20260902030035 | 20 | 310 | 6.4 | 14.5 | 0.00 | 0.00 | 0.00 | 55 | 1014.8 |
| 20260902025013 | 20 | 220 | 3.2 | 14.5 | 0.00 | 0.00 | 0.00 | 54 | 1014.5 |
| 20260902024016 | 21 | 255 | 4.8 | 14.5 | 0.00 | 0.00 | 0.00 | 53 | 1014.3 |
| 20260902023017 | 21 | 242 | 4.8 | 17.7 | 0.00 | 0.00 | 0.00 | 52 | 1014.3 |
| 20260902022012 | 21 | 234 | 6.4 | 19.3 | 0.00 | 0.00 | 0.00 | 51 | 1014.1 |
| 20260902021033 | 21 | 254 | 6.4 | 16.1 | 0.00 | 0.00 | 0.00 | 49 | 1014.1 |
| 20260902020011 | 22 | 211 | 8.0 | 19.3 | 0.00 | 0.00 | 0.00 | 49 | 1014.1 |
| 20260902015028 | 22 | 214 | 6.4 | 17.7 | 0.00 | 0.00 | 0.00 | 48 | 1014.1 |
| 20260902014028 | 22 | 205 | 6.4 | 17.7 | 0.00 | 0.00 | 0.00 | 47 | 1013.9 |
| 20260902013022 | 23 | 255 | 8.0 | 25.7 | 0.00 | 0.00 | 0.00 | 46 | 1013.9 |
| 20260902012025 | 23 | 238 | 6.4 | 17.7 | 0.00 | 0.00 | 0.00 | 43 | 1013.8 |
| 20260902011025 | 24 | 214 | 4.8 | 14.5 | 0.00 | 0.00 | 0.00 | 43 | 1013.8 |
| 20260902010020 | 24 | 256 | 6.4 | 16.1 | 0.00 | 0.00 | 0.00 | 43 | 1013.8 |
| 20260902005018 | 24 | 200 | 9.7 | 17.7 | 0.00 | 0.00 | 0.00 | 42 | 1013.8 |
| 20260902004019 | 25 | 207 | 8.0 | 14.5 | 0.00 | 0.00 | 0.00 | 41 | 1013.8 |
| 20260902003021 | 25 | 208 | 6.4 | 20.9 | 0.00 | 0.00 | 0.00 | 40 | 1013.9 |
| 20260902002016 | 25 | 270 | 9.7 | 20.9 | 0.00 | 0.00 | 0.00 | 41 | 1013.8 |
| 20260902001031 | 25 | 180 | 4.8 | 16.1 | 0.00 | 0.00 | 0.00 | 41 | 1013.9 |
| 20260902000013 | 25 | 166 | 6.4 | 17.7 | 0.00 | 0.00 | 0.00 | 39 | 1014.1 |
| 20260901235028 | 25 | 247 | 8.0 | 14.5 | 0.00 | 0.00 | 0.00 | 39 | 1014.0 |
| 20260901234028 | 25 | 181 | 9.7 | 20.9 | 0.00 | 0.00 | 0.00 | 40 | 1014.2 |
| 20260901233027 | 25 | 166 | 6.4 | 17.7 | 0.00 | 0.00 | 0.00 | 39 | 1014.0 |
| 20260901232024 | 25 | 243 | 9.7 | 22.5 | 0.00 | 0.00 | 0.00 | 39 | 1014.2 |
| 20260901231024 | 25 | 168 | 6.4 | 17.7 | 0.00 | 0.00 | 0.00 | 39 | 1014.4 |
| 20260901230043 | 25 | 236 | 9.7 | 16.1 | 0.00 | 0.00 | 0.00 | 39 | 1014.4 |
| 20260901225041 | 25 | 122 | 8.0 | 16.1 | 0.00 | 0.00 | 0.00 | 42 | 1014.4 |
| 20260901224020 | 24 | 153 | 6.4 | 19.3 | 0.00 | 0.00 | 0.00 | 42 | 1014.6 |
| 20260901223017 | 24 | 214 | 3.2 | 16.1 | 0.00 | 0.00 | 0.00 | 44 | 1014.7 |
| 20260901222017 | 24 | 218 | 6.4 | 16.1 | 0.00 | 0.00 | 0.00 | 46 | 1014.8 |
| 20260901221019 | 23 | 207 | 4.8 | 14.5 | 0.00 | 0.00 | 0.00 | 47 | 1014.8 |
| 20260901220018 | 23 | 215 | 11.3 | 19.3 | 0.00 | 0.00 | 0.00 | 46 | 1015.0 |
| 20260901215016 | 23 | 231 | 6.4 | 19.3 | 0.00 | 0.00 | 0.00 | 48 | 1014.9 |
| 20260901214019 | 22 | 16 | 3.2 | 17.7 | 0.00 | 0.00 | 0.00 | 49 | 1014.9 |
| 20260901213024 | 23 | 144 | 8.0 | 17.7 | 0.00 | 0.00 | 0.00 | 48 | 1015.0 |
| 20260901212022 | 23 | 181 | 8.0 | 19.3 | 0.00 | 0.00 | 0.00 | 48 | 1015.0 |
| 20260901211022 | 22 | 294 | 9.7 | 16.1 | 0.00 | 0.00 | 0.00 | 48 | 1015.1 |
| 20260901210022 | 23 | 229 | 6.4 | 17.7 | 0.00 | 0.00 | 0.00 | 48 | 1015.4 |
| 20260901205014 | 23 | 194 | 4.8 | 8.0 | 0.00 | 0.00 | 0.00 | 51 | 1015.4 |
| 20260901204014 | 22 | 218 | 6.4 | 19.3 | 0.00 | 0.00 | 0.00 | 54 | 1015.5 |
| 20260901203020 | 22 | 235 | 8.0 | 17.7 | 0.00 | 0.00 | 0.00 | 52 | 1015.6 |
| 20260901202040 | 22 | 243 | 6.4 | 22.5 | 0.00 | 0.00 | 0.00 | 53 | 1015.8 |
| 20260901201020 | 22 | 209 | 4.8 | 17.7 | 0.00 | 0.00 | 0.00 | 52 | 1015.9 |
| 20260901200020 | 22 | 182 | 9.7 | 19.3 | 0.00 | 0.00 | 0.00 | 51 | 1015.8 |
| 20260901195017 | 22 | 216 | 8.0 | 22.5 | 0.00 | 0.00 | 0.00 | 52 | 1015.8 |
| 20260901194016 | 22 | 175 | 8.0 | 19.3 | 0.00 | 0.00 | 0.00 | 52 | 1015.9 |
| 20260901193041 | 22 | 122 | 4.8 | 16.1 | 0.00 | 0.00 | 0.00 | 53 | 1016.1 |
| 20260901192022 | 22 | 228 | 8.0 | 24.1 | 0.00 | 0.00 | 0.00 | 54 | 1016.1 |
| 20260901191019 | 21 | 188 | 8.0 | 16.1 | 0.00 | 0.00 | 0.00 | 54 | 1016.2 |
| 20260901190041 | 21 | 152 | 8.0 | 17.7 | 0.00 | 0.00 | 0.00 | 54 | 1016.4 |
| 20260901185016 | 21 | 240 | 8.0 | 20.9 | 0.00 | 0.00 | 0.00 | 59 | 1016.5 |
| 20260901184019 | 20 | 177 | 9.7 | 17.7 | 0.00 | 0.00 | 0.00 | 60 | 1016.5 |
| 20260901183021 | 20 | 218 | 4.8 | 12.9 | 0.00 | 0.00 | 0.00 | 61 | 1016.5 |
| 20260901182023 | 20 | 203 | 6.4 | 16.1 | 0.00 | 0.00 | 0.00 | 63 | 1016.5 |
| 20260901181022 | 20 | 226 | 4.8 | 16.1 | 0.00 | 0.00 | 0.00 | 62 | 1016.5 |
| 20260901180041 | 20 | 150 | 11.3 | 19.3 | 0.00 | 0.00 | 0.00 | 60 | 1016.3 |
| 20260901175020 | 21 | 169 | 8.0 | 19.3 | 0.00 | 0.00 | 0.00 | 60 | 1016.3 |
| 20260901174038 | 20 | 206 | 4.8 | 16.1 | 0.00 | 0.00 | 0.00 | 63 | 1016.4 |
| 20260901173019 | 19 | 119 | 6.4 | 16.1 | 0.00 | 0.00 | 0.00 | 64 | 1016.3 |
| 20260901172025 | 19 | 172 | 9.7 | 20.9 | 0.00 | 0.00 | 0.00 | 64 | 1016.5 |
| 20260901171027 | 19 | 192 | 8.0 | 17.7 | 0.00 | 0.00 | 0.00 | 64 | 1016.3 |
| 20260901170046 | 18 | 199 | 6.4 | 14.5 | 0.00 | 0.00 | 0.00 | 66 | 1016.1 |
| 20260901165041 | 18 | 168 | 12.9 | 19.3 | 0.00 | 0.00 | 0.00 | 63 | 1016.1 |
| 20260901164018 | 18 | 199 | 9.7 | 16.1 | 0.00 | 0.00 | 0.00 | 65 | 1016.0 |
| 20260901163039 | 18 | 193 | 11.3 | 20.9 | 0.00 | 0.00 | 0.00 | 67 | 1016.1 |
| 20260901162033 | 18 | 155 | 12.9 | 20.9 | 0.00 | 0.00 | 0.00 | 66 | 1016.0 |
| 20260901161014 | 18 | 202 | 4.8 | 19.3 | 0.00 | 0.00 | 0.00 | 68 | 1015.9 |
| 20260901160014 | 17 | 128 | 4.8 | 20.9 | 0.00 | 0.00 | 0.00 | 70 | 1015.8 |
| 20260901155010 | 17 | 132 | 11.3 | 19.3 | 0.00 | 0.00 | 0.00 | 71 | 1015.8 |
| 20260901154015 | 17 | 159 | 6.4 | 22.5 | 0.00 | 0.00 | 0.00 | 72 | 1015.6 |
| 20260901153019 | 17 | 201 | 6.4 | 16.1 | 0.00 | 0.00 | 0.00 | 72 | 1015.4 |
| 20260901152020 | 16 | 188 | 8.0 | 14.5 | 0.00 | 0.00 | 0.00 | 75 | 1015.2 |
| 20260901151016 | 16 | 140 | 8.0 | 16.1 | 0.00 | 0.00 | 0.00 | 76 | 1015.2 |
| 20260901150017 | 16 | 165 | 6.4 | 17.7 | 0.00 | 0.00 | 0.00 | 76 | 1015.1 |
| 20260901145017 | 16 | 171 | 6.4 | 14.5 | 0.00 | 0.00 | 0.00 | 76 | 1015.1 |
| 20260901144017 | 15 | 141 | 8.0 | 17.7 | 0.00 | 0.00 | 0.00 | 77 | 1015.1 |
| 20260901143018 | 15 | 99 | 8.0 | 17.7 | 0.00 | 0.00 | 0.00 | 78 | 1014.8 |
| 20260901142041 | 15 | 147 | 6.4 | 17.7 | 0.00 | 0.00 | 0.00 | 78 | 1014.5 |
| 20260901141017 | 15 | 176 | 6.4 | 14.5 | 0.00 | 0.00 | 0.00 | 77 | 1014.4 |
| 20260901140035 | 15 | 115 | 11.3 | 19.3 | 0.00 | 0.00 | 0.00 | 77 | 1014.2 |
| 20260901135019 | 15 | 137 | 8.0 | 16.1 | 0.00 | 0.00 | 0.00 | 78 | 1014.2 |
| 20260901134015 | 15 | 150 | 8.0 | 24.1 | 0.00 | 0.00 | 0.00 | 78 | 1014.0 |
| 20260901133037 | 15 | 105 | 4.8 | 16.1 | 0.00 | 0.00 | 0.00 | 79 | 1014.0 |
| 20260901132017 | 15 | 157 | 8.0 | 17.7 | 0.00 | 0.00 | 0.00 | 79 | 1013.9 |
| 20260901131031 | 15 | 134 | 8.0 | 16.1 | 0.00 | 0.00 | 0.00 | 79 | 1013.6 |
| 20260901130016 | 15 | 174 | 11.3 | 19.3 | 0.00 | 0.00 | 0.00 | 79 | 1013.6 |
| 20260901125020 | 15 | 146 | 6.4 | 17.7 | 0.00 | 0.00 | 0.00 | 79 | 1013.6 |
| 20260901124020 | 15 | 143 | 8.0 | 16.1 | 0.00 | 0.00 | 0.00 | 79 | 1013.5 |
| 20260901123019 | 15 | 116 | 8.0 | 16.1 | 0.00 | 0.00 | 0.00 | 79 | 1013.5 |
| 20260901122048 | 15 | 151 | 6.4 | 16.1 | 0.00 | 0.00 | 0.00 | 79 | 1013.4 |
| 20260901121024 | 15 | 107 | 8.0 | 17.7 | 0.00 | 0.00 | 0.00 | 79 | 1013.5 |
| 20260901120023 | 15 | 137 | 8.0 | 14.5 | 0.00 | 0.00 | 0.00 | 78 | 1013.5 |
| 20260901115024 | 15 | 164 | 6.4 | 17.7 | 0.00 | 0.00 | 0.00 | 79 | 1013.4 |
| 20260901114026 | 15 | 139 | 8.0 | 16.1 | 0.00 | 0.00 | 0.00 | 79 | 1013.3 |